Hourly Weather Klagenfurt

Today, 25 September, Friday

Time Temperature Precipitation Wind Pressure Humidity
00:00 +14°C° 2.3 mm 2 mps 682 mmHg 98%
01:00 +14°C° 2.3 mm 2 mps 682 mmHg 98%
02:00 +14°C° 3.9 mm 2 mps 681 mmHg 98%
03:00 +14°C° 3.9 mm 1 mps 680 mmHg 98%
04:00 +14°C° 3.9 mm 1 mps 680 mmHg 98%
05:00 +13°C° 3.7 mm 1 mps 679 mmHg 98%
06:00 +13°C° 3.7 mm 1 mps 679 mmHg 98%
07:00 +13°C° 3.7 mm 1 mps 678 mmHg 98%
08:00 +13°C° 0.8 mm 1 mps 678 mmHg 98%
09:00 +14°C° 0.8 mm 1 mps 678 mmHg 97%
10:00 +14°C° 0.8 mm 1 mps 678 mmHg 97%
11:00 +15°C° 1.3 mm 1 mps 678 mmHg 95%
12:00 +15°C° 1.3 mm 2 mps 678 mmHg 94%
13:00 +15°C° 1.3 mm 2 mps 678 mmHg 93%
14:00 +15°C° 1.2 mm 2 mps 677 mmHg 92%
15:00 +15°C° 1.2 mm 2 mps 677 mmHg 90%
16:00 +15°C° 1.2 mm 1 mps 676 mmHg 89%
17:00 +14°C° 4.4 mm 2 mps 676 mmHg 92%
18:00 +12°C° 4.4 mm 2 mps 675 mmHg 94%
19:00 +10°C° 4.4 mm 2 mps 674 mmHg 97%
20:00 +9°C° 2.3 mm 2 mps 674 mmHg 97%
21:00 +8°C° 2.3 mm 2 mps 674 mmHg 97%
22:00 +9°C° 2.3 mm 1 mps 674 mmHg 97%
23:00 +7°C° 0.6 mm 2 mps 674 mmHg 97%

Tomorrow, 26 September, Saturday

Time Temperature Precipitation Wind Pressure Humidity
00:00 +6°C° 0.6 mm 2 mps 673 mmHg 96%
01:00 +4°C° 0.6 mm 2 mps 673 mmHg 96%
02:00 +4°C° 1.1 mm 2 mps 673 mmHg 96%
03:00 +4°C° 1.1 mm 2 mps 673 mmHg 96%
04:00 +3°C° 1.1 mm 2 mps 673 mmHg 96%
05:00 +3°C° 0.2 mm 2 mps 673 mmHg 95%
06:00 +5°C° 0.2 mm 1 mps 673 mmHg 95%
07:00 +5°C° 0.2 mm 1 mps 673 mmHg 95%
08:00 +6°C° 0.1 mm 1 mps 674 mmHg 91%
09:00 +7°C° 0.1 mm 1 mps 675 mmHg 88%
10:00 +7°C° 0.1 mm 0 mps 676 mmHg 85%
11:00 +8°C° 0.1 mm 0 mps 676 mmHg 79%
12:00 +9°C° 0.1 mm 0 mps 677 mmHg 73%
13:00 +11°C° 0.1 mm 1 mps 677 mmHg 67%
14:00 +11°C° 0.3 mm 1 mps 677 mmHg 69%
15:00 +10°C° 0.3 mm 1 mps 677 mmHg 72%
16:00 +10°C° 0.3 mm 1 mps 678 mmHg 74%
17:00 +9°C° 0.2 mm 1 mps 678 mmHg 79%
18:00 +7°C° 0.2 mm 1 mps 678 mmHg 85%
19:00 +6°C° 0.2 mm 1 mps 678 mmHg 90%
20:00 +6°C° 0 mm 1 mps 679 mmHg 91%
21:00 +4°C° 0 mm 0 mps 679 mmHg 93%
22:00 +3°C° 0 mm 0 mps 679 mmHg 94%
23:00 +3°C° 0 mm 0 mps 679 mmHg 95%

Day after tomorrow, 27 September, Sunday

Time Temperature Precipitation Wind Pressure Humidity
00:00 +4°C° 0 mm 1 mps 679 mmHg 95%
01:00 +4°C° 0 mm 1 mps 680 mmHg 96%
02:00 +3°C° 0 mm 0 mps 680 mmHg 95%
03:00 +3°C° 0 mm 0 mps 680 mmHg 95%
04:00 +2°C° 0 mm 0 mps 680 mmHg 94%
05:00 +3°C° 0 mm 0 mps 680 mmHg 94%
06:00 +3°C° 0 mm 0 mps 680 mmHg 93%
07:00 +3°C° 0 mm 0 mps 680 mmHg 92%
08:00 +5°C° 0 mm 0 mps 680 mmHg 87%
09:00 +7°C° 0 mm 0 mps 681 mmHg 81%
10:00 +9°C° 0 mm 0 mps 681 mmHg 76%
11:00 +10°C° 0.1 mm 1 mps 681 mmHg 73%
12:00 +11°C° 0.1 mm 1 mps 681 mmHg 70%
13:00 +12°C° 0.1 mm 1 mps 681 mmHg 67%
14:00 +12°C° 0.1 mm 1 mps 682 mmHg 69%
15:00 +11°C° 0.1 mm 1 mps 682 mmHg 71%
16:00 +11°C° 0.1 mm 1 mps 682 mmHg 73%
17:00 +9°C° 0 mm 1 mps 682 mmHg 79%
18:00 +8°C° 0 mm 1 mps 682 mmHg 86%
19:00 +6°C° 0 mm 1 mps 682 mmHg 92%
20:00 +6°C° 0 mm 1 mps 682 mmHg 93%
21:00 +5°C° 0 mm 1 mps 683 mmHg 93%
22:00 +5°C° 0 mm 1 mps 683 mmHg 94%
23:00 +5°C° 0 mm 1 mps 683 mmHg 94%

28 September, Monday

Time Temperature Precipitation Wind Pressure Humidity
00:00 +5°C° 0 mm 1 mps 683 mmHg 94%
01:00 +5°C° 0 mm 1 mps 684 mmHg 94%
02:00 +5°C° 0 mm 1 mps 683 mmHg 94%
03:00 +5°C° 0 mm 1 mps 683 mmHg 94%
04:00 +4°C° 0 mm 1 mps 683 mmHg 94%
05:00 +5°C° 0 mm 1 mps 684 mmHg 93%
06:00 +5°C° 0 mm 1 mps 684 mmHg 93%
07:00 +5°C° 0 mm 1 mps 684 mmHg 92%
08:00 +8°C° 0 mm 1 mps 684 mmHg 84%
09:00 +10°C° 0 mm 1 mps 685 mmHg 75%
10:00 +13°C° 0 mm 1 mps 685 mmHg 67%
11:00 +14°C° 0 mm 1 mps 685 mmHg 64%
12:00 +15°C° 0 mm 1 mps 685 mmHg 60%
13:00 +16°C° 0 mm 1 mps 685 mmHg 56%
14:00 +15°C° 0 mm 1 mps 685 mmHg 60%
15:00 +14°C° 0 mm 1 mps 685 mmHg 64%
16:00 +13°C° 0 mm 0 mps 685 mmHg 67%
17:00 +12°C° 0 mm 1 mps 685 mmHg 74%
18:00 +10°C° 0 mm 1 mps 685 mmHg 81%
19:00 +9°C° 0 mm 1 mps 686 mmHg 88%
20:00 +8°C° 0 mm 1 mps 686 mmHg 88%
21:00 +8°C° 0 mm 1 mps 686 mmHg 89%
22:00 +7°C° 0 mm 1 mps 686 mmHg 89%
23:00 +7°C° 0 mm 1 mps 686 mmHg 89%

29 September, Tuesday

Time Temperature Precipitation Wind Pressure Humidity
00:00 +7°C° 0 mm 1 mps 686 mmHg 89%
01:00 +7°C° 0 mm 1 mps 687 mmHg 89%
02:00 +7°C° 0 mm 1 mps 687 mmHg 89%
03:00 +7°C° 0 mm 1 mps 687 mmHg 88%
04:00 +6°C° 0 mm 1 mps 687 mmHg 88%
05:00 +7°C° 0 mm 1 mps 687 mmHg 86%
06:00 +8°C° 0 mm 1 mps 687 mmHg 85%
07:00 +8°C° 0 mm 1 mps 688 mmHg 83%
08:00 +11°C° 0 mm 1 mps 688 mmHg 76%
09:00 +13°C° 0 mm 1 mps 689 mmHg 70%
10:00 +15°C° 0 mm 1 mps 690 mmHg 64%
11:00 +18°C° 0 mm 1 mps 690 mmHg 61%
12:00 +19°C° 0 mm 1 mps 690 mmHg 58%
13:00 +20°C° 0 mm 1 mps 691 mmHg 55%
14:00 +19°C° 0 mm 1 mps 690 mmHg 61%
15:00 +18°C° 0 mm 1 mps 690 mmHg 66%
16:00 +18°C° 0 mm 1 mps 690 mmHg 72%
17:00 +15°C° 0 mm 1 mps 690 mmHg 78%
18:00 +13°C° 0 mm 1 mps 689 mmHg 85%
19:00 +11°C° 0 mm 1 mps 689 mmHg 91%
20:00 +11°C° 0 mm 1 mps 689 mmHg 91%
21:00 +11°C° 0 mm 1 mps 690 mmHg 91%
22:00 +11°C° 0 mm 1 mps 690 mmHg 92%
23:00 +10°C° 0.2 mm 0 mps 690 mmHg 92%

30 September, Wednesday

Time Temperature Precipitation Wind Pressure Humidity
00:00 +10°C° 0.2 mm 0 mps 689 mmHg 92%
01:00 +10°C° 0.2 mm 0 mps 689 mmHg 92%
02:00 +9°C° 0.3 mm 0 mps 689 mmHg 93%
03:00 +9°C° 0.3 mm 0 mps 689 mmHg 93%
04:00 +9°C° 0.3 mm 0 mps 688 mmHg 94%
05:00 +9°C° 0.2 mm 0 mps 688 mmHg 93%
06:00 +9°C° 0.2 mm 0 mps 688 mmHg 93%
07:00 +9°C° 0.2 mm 0 mps 688 mmHg 93%
08:00 +10°C° 0 mm 0 mps 688 mmHg 89%
09:00 +11°C° 0 mm 0 mps 688 mmHg 84%
10:00 +13°C° 0 mm 0 mps 688 mmHg 80%
11:00 +14°C° 0 mm 0 mps 688 mmHg 76%
12:00 +16°C° 0 mm 1 mps 688 mmHg 72%
13:00 +18°C° 0 mm 1 mps 687 mmHg 67%
14:00 +16°C° 0 mm 1 mps 687 mmHg 69%
15:00 +16°C° 0 mm 1 mps 687 mmHg 71%
16:00 +16°C° 0 mm 1 mps 686 mmHg 73%
17:00 +14°C° 0 mm 1 mps 686 mmHg 79%
18:00 +13°C° 0 mm 1 mps 686 mmHg 86%
19:00 +11°C° 0 mm 1 mps 685 mmHg 92%
20:00 +11°C° 0 mm 1 mps 686 mmHg 93%
21:00 +10°C° 0 mm 1 mps 686 mmHg 93%
22:00 +10°C° 0 mm 1 mps 686 mmHg 94%
23:00 +9°C° 0 mm 1 mps 685 mmHg 94%
Show more